Location: City of Moscow
(46.7306°N, 116.9989°W)
Time: 04:00:22
(UTC+00:00)

Cosmos 1626 Rocket - Pass Details

Date: 11 December 2025
Orbit: 596 x 625 km, 82.5° (Epoch: 13 January)

Event Time Altitude Azimuth Distance (km) Brightness Sun altitude
Rises 14:08:51 0° 204° (SSW) 2,892 7.0 -12.1°
Reaches altitude 10° 14:11:09 10° 211° (SSW) 1,988 6.1 -11.7°
Maximum altitude 14:15:22 44° 284° (WNW) 869 3.9 -11.1°
Drops below altitude 10° 14:19:35 10° 357° (N) 1,990 5.9 -10.4°
Sets 14:21:54 0° 4° (N) 2,895 6.8 -10.0°
